Home   Weather   Cape Coral   Past weeks

Flag for USA Past Weather in Cape Coral, Florida, USA — Yesterday and Last 2 Weeks

Now
74 °F

Clear.


Feels Like: 72 °F
Forecast: 78 / 88 °F
Wind: 3 mph from Southeast

Location: Page Field

Current Time: Sep 25, 2016 at 1:23:57 AM

Latest Report: Sep 25, 2016 at 12:53 AM


Visibility: 10 mi

Pressure: 30.01 "Hg

Humidity: 91%

Dew Point: 71 °F

Location of Cape CoralLocation

Past Weather in Cape Coral — Graph

°F

Cape Coral Temperature Yesterday

Maximum temperature yesterday: 89 °F (at 3:53 PM)
Minimum temperature yesterday: 74 °F (at 11:53 PM)
Average temperature yesterday: 80 °F

High & Low Weather Summary for the Past Weeks

 TemperatureHumidityPressure
High93 °F (Sep 21, 4:53 PM)97% (Sep 10, 6:53 AM)30.09 "Hg (Sep 10, 6:53 AM)
Low74 °F (Sep 24, 11:53 PM)46% (Sep 21, 4:53 PM)29.90 "Hg (Sep 12, 4:53 PM)
Average82 °F80%29.99 "Hg
* Reported Sep 9 11:53 PM — Sep 24 11:53 PM, Cape Coral, Weather by CustomWeather, © 2016

Note: Actual official high and low records may vary slightly from our data, if they occured in-between our weather recording intervals... More about our weather records

Advertising

Cape Coral Weather History for the Previous 24 Hours

Scroll right to see more
 ConditionsComfort  
Time TempWeatherWind HumidityBarometerVisibility
11:53 PM
Sat, Sep 24
74 °FClear.5 mph91%30.02 "Hg10 mi
10:53 PM75 °FClear.6 mph88%30.02 "Hg10 mi
9:53 PM75 °FClear.No wind88%30.00 "Hg10 mi
8:53 PM75 °FLight rain. Passing clouds.3 mph85%30.02 "Hg10 mi
7:53 PM78 °FThundershowers. Passing clouds.10 mph74%30.03 "Hg10 mi
6:53 PM82 °FThunderstorms. Scattered clouds.5 mph63%29.99 "Hg10 mi
6:00 PM84 °FThundershowers. Scattered clouds.9 mph72%29.99 "Hg10 mi
4:53 PM89 °FSunny.7 mph55%29.97 "Hg10 mi
3:53 PM89 °FThundershowers. Sunny.8 mph61%29.97 "Hg10 mi
2:53 PM80 °FThundershowers. Broken clouds.7 mph85%29.99 "Hg8 mi
1:53 PM88 °FThunderstorms. Partly sunny.No wind57%30.01 "Hg10 mi
12:53 PM88 °FPartly sunny.6 mph61%30.03 "Hg10 mi
11:53 AM87 °FSunny.3 mph65%30.05 "Hg10 mi
10:53 AM85 °FSunny.No wind72%30.06 "Hg10 mi
9:53 AM79 °FSunny.3 mph90%30.05 "Hg10 mi
8:53 AM77 °FSunny.5 mph94%30.03 "Hg10 mi
7:53 AM76 °FSunny.No wind97%30.02 "Hg10 mi
6:53 AM76 °FClear.3 mph94%30.01 "Hg10 mi
5:53 AM75 °FClear.No wind96%29.99 "Hg10 mi
4:53 AM75 °FClear.No wind96%29.98 "Hg10 mi
3:53 AM75 °FClear.No wind96%29.99 "Hg10 mi
2:53 AM75 °FClear.No wind96%30.00 "Hg10 mi
1:53 AM75 °FClear.No wind96%30.01 "Hg10 mi
Weather by CustomWeather, © 2016

See weather overviewHow to use our weather pages